星链-1679 (STARLINK-1679 )

导读 | 星芒AI

STARLINK-1679 是 SpaceX Starlink 项目中的一颗低轨通信卫星,属于第 16 批部署的星链卫星群。该卫星于 2022 年发射,旨在为全球提供高速互联网服务。它运行在约 550 公里的轨道高度,采用先进的推进系统和激光通信技术,以提高网络连接的稳定性和效率。STARLINK-1679 与其他星链卫星协同工作,支持偏远地区的宽带接入,并增强整体星座的冗余与覆盖能力。

基本信息
目录编号:
46557
目录名称:
STARLINK-1679
国际标识:
2020-070AB
轨道中心:
EARTH
卫星名称:
星链-1679
卫星全名:
星链-1679 (STARLINK-1679 )
卫星状态:
在轨 (已飞行1849 天)
发射日期:
2020-10-06 UTC
国别 :
美国 (US)
星等 :
--
轨道信息
数据来源 国际轨道数据
星历时间: 2025-10-29T20:29:56+0800
4小时前
查看轨道信息
半长轴: 6855.436km
偏心率: 0.0003338
轨道倾角: 53.058°
近地点辐角 9.618°
升交点赤经 26.601°
平近点角 350.488°
近地点: 475.012km
远地点: 479.59km
周期: 94.148分钟
每日圈数: 15.295026
详细信息
固有亮度:
5
最大亮度:
2.5
卫星平台:
Starlink V1.0
覆盖范围:
全球
运营商:
太空探索技术公司
运营商所在国:
美国
制造商(研发单位):
太空探索技术公司
制造商所在国:
美国
使用方式:
暂无
卫星简介
星链(Starlink)计划是由太空探索技术公司(SpaceX)提出的一个巨型低轨卫星互联网星座项目,计划在2019年至2024年间在太空搭建由约1.2万颗卫星组成的“星链”网络,其中1584颗将部署在地球上空550千米处的近地轨道,并从2020年开始工作。该卫星仍在工作。
2D轨道图
3D轨道图
轨道高度分析图
轨道倾角分析图
轨道综合分析图
查看轨道综合分析图